User: anonymous   Login
Location: Al Mulaqqa?ah
(24.1833°N, 32.8833°E)
Time: 09:16:21
(UTC+00:00)
Language:

EPKM - Orbit

View from above orbital plane
View from above orbital plane
View from above satellite
View from above satellite

Ground track
Ground track

The orbit data is extracted from the following two-line orbital elements,

1 23756U 95073C   21340.46642886  .00024029  00000-0  87586-3 0  9995
2 23756  24.1742 111.2159 6048578 176.0169 192.9503  4.03900201288863
Epoch (UTC): 06 December 2021 11:11:39
Eccentricity: 0.6048578
inclination: 24.1742°
perigee height: 203 km
apogee height: 20351 km
right ascension of ascending node: 111.2159°
argument of perigee: 176.0169°
revolutions per day: 4.03900201
mean anomaly at epoch: 192.9503°
orbit number at epoch: 28886

The dashed part of the orbit path shows where the satellite is in the earth's shadow,  

DLR